User: anonymous   Login
Location: Unspecified
(0.0000°N, 0.0000°E)
Time: 10:49:41
(UTC+00:00)
Language:

A-11 Canister half - Orbit

View from above orbital plane
View from above orbital plane
View from above satellite
View from above satellite

Ground track
Ground track

The orbit data is extracted from the following two-line orbital elements,

1 00051U 60009C   16242.31340496 -.00000122  00000-0 -36156-3 0  9997
2 00051  47.2140 321.9525 0103836 354.8544   5.1172 12.18261505494854
Epoch (UTC): 29 August 2016 07:31:18
Eccentricity: 0.0103836
inclination: 47.2140°
perigee height: 1517 km
apogee height: 1683 km
right ascension of ascending node: 321.9525°
argument of perigee: 354.8544°
revolutions per day: 12.18261505
mean anomaly at epoch: 5.1172°
orbit number at epoch: 49485

The dashed part of the orbit path shows where the satellite is in the earth's shadow,  

DLR